Sturgeon Bay, WI

7:04 AM CDT on October 20, 2019 (GMT -0500)
Door County Cherryland

Weather History for KSUE - August, 2019

Change the Weather History Date:

Saturday, August 10, 2019

  Actual Average Record
Temperature  
Mean Temperature 66 °F -  
Max Temperature 78 °F 76 °F 95 °F (1944)
Min Temperature 57 °F 57 °F 40 °F (1972)
Cooling Degree Days 1    
Growing Degree Days 16 (Base 50)    
Moisture  
Dew Point 57 °F    
Average Humidity 71    
Maximum Humidity 93    
Minimum Humidity 48    
Precipitation  
Precipitation 0.00 in - - ()
Sea Level Pressure  
Sea Level Pressure 29.99 in    
Wind  
Wind Speed 4 mph (SSW)    
Max Wind Speed 12 mph    
Max Gust Speed -    
Visibility 10 miles    
Events      
Averages and records for this station are not official NWS values.
T = Trace of Precipitation, MM = Missing Value Source: NWS Daily Summary

Daily Weather History Graph

Daily Weather History Graph

Search for Another Location

Airport or City:

Astronomy

Aug. 10, 2019 Rise Set
Actual Time 5:45 AM CDT 8:03 PM CDT
Civil Twilight 5:13 AM CDT 8:36 PM CDT
Nautical Twilight 4:32 AM CDT 9:16 PM CDT
Astronomical Twilight 3:47 AM CDT 10:01 PM CDT
Moon 4:51 PM CDT (8/10) 1:18 AM CDT (8/10)
Length of Visible Light 15h 22m
Length of Day
14h 18m
Waxing Gibbous, 79% of the Moon is Illuminated
Aug 10
Waxing Gibbous
Aug 15
Full
Aug 23
Last Quarter
Aug 30
New
Sep 5
First Quarter

Hourly Weather History & Observations

Time (CDT) Temp. Dew Point Humidity Pressure Visibility Wind Dir Wind Speed Gust Speed Precip Events Conditions
12:56 AM 63.0 °F 57.0 °F 81% 29.96 in 10.0 mi NNE 3.5 mph - N/A   Clear
1:56 AM 62.1 °F 55.9 °F 80% 29.97 in 10.0 mi Calm Calm - N/A   Clear
2:56 AM 57.9 °F 55.9 °F 93% 29.97 in 10.0 mi Calm Calm - N/A   Clear
3:56 AM 57.9 °F 55.9 °F 93% 29.97 in 10.0 mi Calm Calm - N/A   Clear
4:56 AM 57.9 °F 55.9 °F 93% 29.98 in 10.0 mi Calm Calm - N/A   Clear
5:56 AM 57.0 °F 55.0 °F 93% 29.99 in 10.0 mi Calm Calm - N/A   Clear
6:56 AM 59.0 °F 57.0 °F 93% 30.00 in 10.0 mi SSW 3.5 mph - N/A   Clear
7:56 AM 66.0 °F 61.0 °F 84% 30.01 in 10.0 mi SSW 4.6 mph - N/A   Clear
8:56 AM 69.1 °F 57.0 °F 65% 30.02 in 10.0 mi SSW 3.5 mph - N/A   Clear
9:56 AM 71.1 °F 60.1 °F 68% 30.03 in 10.0 mi NW 4.6 mph - N/A   Clear
10:56 AM 73.0 °F 55.9 °F 55% 30.02 in 10.0 mi Variable 4.6 mph - N/A   Clear
11:56 AM 73.0 °F 55.0 °F 53% 30.02 in 10.0 mi Variable 4.6 mph - N/A   Clear
12:56 PM 75.0 °F 55.9 °F 51% 30.01 in 10.0 mi NW 8.1 mph - N/A   Clear
1:56 PM 75.9 °F 55.9 °F 50% 30.00 in 10.0 mi West 5.8 mph - N/A   Clear
2:56 PM 75.9 °F 55.0 °F 48% 29.99 in 10.0 mi Calm Calm - N/A   Clear
3:56 PM 75.9 °F 57.9 °F 54% 29.99 in 10.0 mi West 3.5 mph - N/A   Clear
4:56 PM 73.9 °F 59.0 °F 59% 29.98 in 10.0 mi SSE 9.2 mph - N/A   Clear
5:56 PM 73.0 °F 59.0 °F 61% 29.98 in 10.0 mi South 11.5 mph - N/A   Clear
6:56 PM 71.1 °F 57.0 °F 61% 29.98 in 10.0 mi South 9.2 mph - N/A   Clear
7:56 PM 68.0 °F 57.9 °F 70% 29.97 in 10.0 mi South 9.2 mph - N/A   Clear
8:56 PM 66.0 °F 57.0 °F 73% 29.98 in 10.0 mi South 8.1 mph - N/A   Clear
9:56 PM 64.9 °F 55.9 °F 73% 29.99 in 10.0 mi South 8.1 mph - N/A   Clear
10:56 PM 64.0 °F 55.0 °F 73% 29.98 in 10.0 mi South 6.9 mph - N/A   Clear
11:56 PM 64.0 °F 55.0 °F 73% 29.99 in 10.0 mi SSW 10.4 mph - N/A   Clear